Location: Ammerl�gen
(47.2167°N, 9.6000°E)
Time: 04:01:10
(UTC+00:00)

Cosmos 1076 Rocket - Pass Details

Date: 21 April 2021
Orbit: 589 x 613 km, 82.5° (Epoch: 16 May)

Event Time Altitude Azimuth Distance (km) Brightness Sun altitude
Rises 19:38:58 0° 349° (N) 2,881 7.7 -12.9°
Reaches altitude 10° 19:41:12 10° 349° (N) 1,968 6.8 -13.2°
Maximum altitude 19:45:34 82° 262° (W) 616 3.6 -13.8°
Enters shadow 19:49:36 12° 176° (S) 1,831 5.6 -14.4°
